Notices

What's New in latest Release from April 7th, 2021:

- Updated Glossary, including Speed of Maximum Gust, and Total Hourly Precipitation

- Updated national and regional climate services offices contacts and prices information

- Addition of station inventory lists for 1981-2010, 1971-2000, and 1961-1990 Normals.

If you haven't already, please take our survey and provide feedback about our website: https://eccc.sondage-survey.ca/f/LanguageSelection.aspx?s=442ca660-fcf1-47c0-95a9-59707d6fd709

Hourly Data Report for July 24, 2019

TORONTO CITY
ONTARIO
Current Station Operator: ECCC - MSC

43°40'00.000" N
79°24'00.000" W
112.50 m
6158355
71508
XTO

Download Data

Hourly Data (July 2019)
Hourly Data Report for July 24, 2019
TIME
LST
Temp Definition
°C
Dew Point Definition
°C
Rel Hum Definition
%
Precip. Amount Definition
mm

Wind Dir Definition
10's deg

Wind Spd Definition
km/h
Visibility Definition
km
Stn Press Definition
kPa
Hmdx Definition


Wind Chill Definition


Weather Definition


00:00 19.2 6.9 45 0.0       100.16     LegendNANA
01:00 18.6 6.8 46 0.0       100.15     LegendNANA
02:00 18.6 7.3 48 0.0       100.16     LegendNANA
03:00 18.2 9.7 57 0.0       100.17     LegendNANA
04:00 18.6 12.7 69 0.0       100.22     LegendNANA
05:00 18.0 12.7 71 0.0       100.26     LegendNANA
06:00 18.3 13.4 73 0.0       100.30     LegendNANA
07:00 19.4 13.2 67 0.0       100.35     LegendNANA
08:00 21.1 12.6 58 0.0       100.39     LegendNANA
09:00 22.1 12.8 55 0.0       100.42 25   LegendNANA
10:00 23.4 10.6 44 0.0       100.43 25   LegendNANA
11:00 24.3 9.7 40 0.0       100.43 25   LegendNANA
12:00 23.5 12.2 49 0.0       100.42 26   LegendNANA
13:00 24.9 11.5 43 0.0       100.39 27   LegendNANA
14:00 25.0 10.2 39 0.0       100.36 26   LegendNANA
15:00 24.7 10.3 40 0.0       100.34 26   LegendNANA
16:00 25.3 9.8 37 0.0       100.33 26   LegendNANA
17:00 25.9 4.3 25 0.0       100.30 25   LegendNANA
18:00 25.3 4.3 26 0.0       100.34     LegendNANA
19:00 24.4 5.2 29 0.0       100.39     LegendNANA
20:00 23.0 7.0 36 0.0       100.44     LegendNANA
21:00 22.6 9.0 42 0.0       100.47     LegendNANA
22:00 21.4 10.3 49 0.0       100.51     LegendNANA
23:00 20.8 10.7 52 0.0       100.51     LegendNANA

Notes on Data Quality.

Legend

  • E = Estimated
  • M = Missing
  • NA = Not Available*
  • [empty] = Indicates an unobserved value
Date modified: